Showing default

IRNSS 1F, 41384

Orbit data source: Space-Track

IRNSS 1F, 41384 is a payload satellite owned by ISRO (IN) in GEO that was launched on Thu, 10 Mar 2016 UTC via a PSLV-XL launch vehicle from the Sirharikota (SRI). Payload-class satellites include a variety of spacecraft equipped with specific instruments for various scientific and technological missions. These include communications satellites like Starlink; space stations such as the ISS; scientific satellites like the Hubble; Earth observation satellites from companies like Planet Labs, Umbra, and HawkEye 360; GPS; miniature CubeSats for education and research; and military/defense satellites.

Not visible in the next 10 days
Identifier
41384, 2016-015A
Orbit
GEO
Country
Flag of ININ / IND
Related business
Manufacturer
ISRO SAC/Banga
Mission
Partially operational Civil Navigation
Bus & Motor
I1K, ISRO LAM
Mass
1,425 kg wet, 598 kg dry
Launch date (UTC)
2016-03-10 (10 years ago)
Launch vehicle
PSLV-XL
Launch site
Sirharikota (SRI)
Object type
Payload
Rocket body
Debris
Shape & HBR
Box + 2 Pan, 5.0 m
Radar Cross Section
6.961 m², Medium (>0.1 m² and < 1m²)

Expand to show TLE details & history
Last TLE update: 2 days ago

TLE from 2 days ago
0 IRNSS 1F
1 41384U 16015A   26170.97063664  .00000151  00000-0  00000-0 0  9997
2 41384   5.3558  96.7185 0017430 184.9553   8.3745  1.00268822 37695
Epoch: 2026-06-19T23:17Z
TLE epoch observation values (Epoch: 2026-06-19T23:17:43.005Z)
Latitude
-1.25972°
Longitude
32.42034°
Altitude
35,714.129 km
Speed
3.08 km/s
True Right ascension
19h 20m 09s
True Declination
-1° 15' 30"
Sunlit
Object was in daylight at epoch
Visualization orbit readout
Latitude
Unknown
Longitude
Unknown
Altitude
Unknown
Speed
Unknown
Apparent Right ascension
Unknown
Apparent Declination
Unknown
Sunlit
N/A
Visualization observer readout
Local Sidereal Time
21:24:35
Azimuth
Unknown
Elevation
Unknown
Doppler factor
Unknown
Orbital elements
Apogee altitude
35,861.979 km
Perigee altitude
35,714.986 km
Semi-major axis
42,166.619 km
Eccentricity
0.00174
Inclination
5.3558°
RAAN
96.7185°
Arg. of periapsis
184.9553°
True anomaly
8.40365°
Mean anomaly
8.3745°
Eccentric anomaly
8.38907°
Mean motion
0.25066 °/min
Orbital period
1,436.19 mins
BSTAR
0
Loading maneuver chart data...
Computing Atmospheric mass density...
Loading historical data...
Loading historical data...
Loading historical data...
Loading historical data...
Loading historical data...
Loading historical data...
Loading historical data...
Other satellites on launch #15 in the year 2016 (2016-03-10 UTC)

Documentation

Showing up to 5 results
|